Howell, MI

3:50 AM EDT on August 28, 2016 (GMT -0400)
Livingston County

Weather History for KOZW - November, 2012

Change the Weather History Date:

Friday, November 2, 2012

  Actual Average Record
Temperature  
Mean Temperature 38 °F -  
Max Temperature 41 °F 52 °F 73 °F (2015)
Min Temperature 35 °F 35 °F 19 °F (2014)
Degree Days  
Heating Degree Days 26    
Moisture  
Dew Point 27 °F    
Average Humidity 63    
Maximum Humidity 77    
Minimum Humidity 55    
Precipitation  
Precipitation 0.00 in - - ()
Sea Level Pressure  
Sea Level Pressure 29.92 in    
Wind  
Wind Speed 9 mph (NW)    
Max Wind Speed 16 mph    
Max Gust Speed 24 mph    
Visibility 10 miles    
Events      
Averages and records for this station are not official NWS values.
T = Trace of Precipitation, MM = Missing Value Source: NWS Daily Summary

Daily Weather History Graph

Daily Weather History Graph

Search for Another Location

Airport or City:

Trip Planner

Search our weather history database for the weather conditions in past years. The results will help you decide how hot, cold, wet, or windy it might be!

Date:

Astronomy

Nov. 02, 2012 Rise Set
Actual Time 8:11 AM EDT 6:26 PM EDT
Civil Twilight 7:42 AM EDT 6:56 PM EDT
Nautical Twilight 7:08 AM EDT 7:29 PM EDT
Astronomical Twilight 6:35 AM EDT 8:02 PM EDT
Moon 9:10 PM EDT (11/2) 11:34 AM EDT (11/2)
Length of Visible Light 11h 14m
Length of Day
10h 15m
Waning Gibbous, 87% of the Moon is Illuminated
Nov 2
Waning Gibbous
Nov 6
Last Quarter
Nov 13
New
Nov 20
First Quarter
Nov 28
Full

Hourly Weather History & Observations

Time (EDT) Temp. Windchill Dew Point Humidity Pressure Visibility Wind Dir Wind Speed Gust Speed Precip Events Conditions
12:14 AM 38.5 °F 33.4 °F 25.9 °F 61% 29.78 in 10.0 mi WNW 6.9 mph - N/A   Overcast
12:35 AM 38.8 °F 32.6 °F 25.9 °F 60% 29.78 in 10.0 mi WNW 9.2 mph - N/A   Overcast
12:55 AM 39.2 °F 33.6 °F 25.7 °F 58% 29.78 in 10.0 mi WNW 8.1 mph - N/A   Overcast
1:14 AM 38.8 °F 33.2 °F 25.9 °F 60% 29.79 in 10.0 mi WNW 8.1 mph - N/A   Overcast
1:35 AM 38.8 °F 33.2 °F 25.9 °F 60% 29.79 in 10.0 mi WNW 8.1 mph - N/A   Overcast
1:54 AM 38.7 °F 31.8 °F 26.2 °F 61% 29.79 in 10.0 mi WNW 10.4 mph - N/A   Overcast
2:15 AM 38.7 °F 33.6 °F 26.6 °F 62% 29.79 in 10.0 mi NW 6.9 mph - N/A   Overcast
2:34 AM 38.7 °F 33.6 °F 27.3 °F 64% 29.79 in 10.0 mi WNW 6.9 mph - N/A   Overcast
2:54 AM 38.5 °F 32.1 °F 27.1 °F 64% 29.80 in 10.0 mi NW 9.2 mph - N/A   Overcast
3:15 AM 38.7 °F 31.4 °F 26.6 °F 62% 29.80 in 10.0 mi NNW 11.5 mph - N/A   Overcast
3:34 AM 39.2 °F 33.6 °F 26.4 °F 60% 29.80 in 10.0 mi NW 8.1 mph - N/A   Overcast
3:54 AM 38.8 °F 33.8 °F 27.0 °F 62% 29.80 in 10.0 mi NW 6.9 mph - N/A   Overcast
4:15 AM 38.7 °F 33.6 °F 27.5 °F 64% 29.80 in 10.0 mi WNW 6.9 mph - N/A   Overcast
4:34 AM 38.5 °F 34.1 °F 27.9 °F 66% 29.81 in 10.0 mi WNW 5.8 mph - N/A   Overcast
4:55 AM 38.3 °F 33.2 °F 28.2 °F 67% 29.81 in 10.0 mi WNW 6.9 mph - N/A   Overcast
5:15 AM 38.3 °F 32.5 °F 28.4 °F 68% 29.81 in 10.0 mi WNW 8.1 mph - N/A   Overcast
5:34 AM 38.3 °F 32.5 °F 28.0 °F 67% 29.81 in 10.0 mi WNW 8.1 mph - N/A   Overcast
5:55 AM 38.3 °F 31.9 °F 27.9 °F 66% 29.82 in 10.0 mi WNW 9.2 mph - N/A   Overcast
6:15 AM 38.5 °F 31.1 °F 27.5 °F 65% 29.82 in 10.0 mi WNW 11.5 mph 17.3 mph N/A   Overcast
6:34 AM 38.5 °F 30.7 °F 27.9 °F 66% 29.83 in 10.0 mi WNW 12.7 mph 17.3 mph N/A   Overcast
6:55 AM 38.5 °F 31.6 °F 28.2 °F 67% 29.83 in 10.0 mi WNW 10.4 mph - N/A   Overcast
7:15 AM 38.5 °F 32.7 °F 28.4 °F 67% 29.84 in 10.0 mi WNW 8.1 mph 16.1 mph N/A   Overcast
7:34 AM 37.8 °F 29.4 °F 29.5 °F 72% 29.85 in 7.0 mi NNW 13.8 mph 20.7 mph N/A   Overcast
7:55 AM 37.4 °F 29.3 °F 30.9 °F 77% 29.85 in 10.0 mi NW 12.7 mph 17.3 mph N/A   Overcast
8:15 AM 37.4 °F 30.8 °F 30.9 °F 77% 29.86 in 10.0 mi NW 9.2 mph - N/A   Overcast
8:34 AM 37.4 °F 29.8 °F 30.0 °F 75% 29.88 in 10.0 mi NNW 11.5 mph 19.6 mph N/A   Overcast
8:55 AM 36.1 °F 29.3 °F 29.3 °F 76% 29.89 in 10.0 mi NNW 9.2 mph 16.1 mph N/A   Light Drizzle
9:14 AM 36.0 °F 28.0 °F 28.6 °F 75% 29.90 in 10.0 mi North 11.5 mph 20.7 mph N/A   Overcast
9:34 AM 36.1 °F 28.2 °F 27.5 °F 71% 29.91 in 10.0 mi NNW 11.5 mph 16.1 mph N/A   Overcast
9:55 AM 37.4 °F 28.5 °F 25.7 °F 63% 29.91 in 10.0 mi NNW 15.0 mph 19.6 mph N/A   Scattered Clouds
10:14 AM 38.3 °F 30.5 °F 25.7 °F 61% 29.91 in 10.0 mi NNW 12.7 mph 19.6 mph N/A   Scattered Clouds
10:35 AM 39.6 °F 31.7 °F 25.9 °F 58% 29.92 in 10.0 mi North 13.8 mph 18.4 mph N/A   Scattered Clouds
10:55 AM 38.5 °F 29.9 °F 24.8 °F 58% 29.93 in 10.0 mi NNW 15.0 mph 21.9 mph N/A   Overcast
11:14 AM 39.2 °F 32.0 °F 25.5 °F 58% 29.93 in 10.0 mi NNW 11.5 mph 18.4 mph N/A   Overcast
11:35 AM 38.7 °F 30.5 °F 25.9 °F 60% 29.93 in 10.0 mi North 13.8 mph 24.2 mph N/A   Mostly Cloudy
11:55 AM 39.2 °F 31.6 °F 25.9 °F 59% 29.94 in 10.0 mi NNW 12.7 mph 19.6 mph N/A   Overcast
12:14 PM 39.0 °F 31.8 °F 26.6 °F 61% 29.95 in 10.0 mi NNW 11.5 mph 21.9 mph N/A   Overcast
12:35 PM 39.7 °F 32.7 °F 25.3 °F 56% 29.95 in 10.0 mi NW 11.5 mph 19.6 mph N/A   Overcast
12:55 PM 39.9 °F 32.1 °F 24.8 °F 55% 29.96 in 10.0 mi NNW 13.8 mph 20.7 mph N/A   Overcast
1:14 PM 39.7 °F 31.9 °F 26.4 °F 59% 29.96 in 10.0 mi NW 13.8 mph - N/A   Overcast
1:35 PM 40.1 °F 31.6 °F 26.4 °F 58% 29.96 in 10.0 mi NW 16.1 mph - N/A   Overcast
1:54 PM 40.1 °F 32.7 °F 26.2 °F 58% 29.96 in 10.0 mi NNW 12.7 mph 17.3 mph N/A   Overcast
2:14 PM 40.3 °F 33.9 °F 26.4 °F 58% 29.96 in 10.0 mi NNW 10.4 mph - N/A   Overcast
2:35 PM 41.0 °F 35.2 °F 26.4 °F 56% 29.96 in 10.0 mi NW 9.2 mph 17.3 mph N/A   Overcast
2:54 PM 41.2 °F 34.5 °F 26.6 °F 56% 29.96 in 10.0 mi NW 11.5 mph - N/A   Overcast
3:14 PM 41.4 °F 34.7 °F 27.5 °F 58% 29.96 in 10.0 mi WNW 11.5 mph 16.1 mph N/A   Overcast
3:35 PM 41.9 °F 34.6 °F 27.3 °F 56% 29.97 in 10.0 mi NW 13.8 mph 18.4 mph N/A   Overcast
3:54 PM 41.2 °F 34.5 °F 27.7 °F 59% 29.97 in 10.0 mi NNW 11.5 mph - N/A   Overcast
4:15 PM 41.4 °F 34.7 °F 28.9 °F 61% 29.98 in 10.0 mi NW 11.5 mph 16.1 mph N/A   Overcast
4:35 PM 41.4 °F 36.2 °F 29.1 °F 62% 29.98 in 10.0 mi NW 8.1 mph - N/A   Overcast
4:54 PM 41.4 °F 35.2 °F 29.1 °F 62% 29.98 in 10.0 mi WNW 10.4 mph - N/A   Overcast
5:15 PM 41.5 °F 37.8 °F 28.9 °F 61% 29.98 in 10.0 mi NW 5.8 mph - N/A   Overcast
5:35 PM 41.5 °F 35.0 °F 28.2 °F 59% 29.98 in 10.0 mi NW 11.5 mph 16.1 mph N/A   Overcast
5:54 PM 41.5 °F 35.9 °F 28.0 °F 59% 29.99 in 10.0 mi NW 9.2 mph - N/A   Overcast
6:15 PM 41.4 °F 36.2 °F 28.6 °F 60% 30.00 in 10.0 mi NW 8.1 mph - N/A   Overcast
6:34 PM 41.4 °F 36.8 °F 28.6 °F 60% 30.00 in 10.0 mi NW 6.9 mph - N/A   Overcast
6:55 PM 41.4 °F 37.6 °F 28.6 °F 60% 30.01 in 10.0 mi NW 5.8 mph - N/A   Overcast
7:15 PM 41.2 °F 36.0 °F 27.7 °F 59% 30.02 in 10.0 mi NNW 8.1 mph - N/A   Overcast
7:34 PM 41.0 °F 34.7 °F 27.5 °F 59% 30.02 in 10.0 mi NNW 10.4 mph 19.6 mph N/A   Overcast
7:55 PM 41.0 °F 34.3 °F 27.1 °F 58% 30.03 in 10.0 mi NNW 11.5 mph 16.1 mph N/A   Overcast
8:14 PM 40.8 °F 34.5 °F 27.3 °F 59% 30.03 in 10.0 mi NW 10.4 mph 17.3 mph N/A   Overcast
8:35 PM 40.3 °F 34.9 °F 27.3 °F 60% 30.03 in 10.0 mi NNW 8.1 mph - N/A   Overcast
8:55 PM 40.1 °F 34.1 °F 27.9 °F 62% 30.04 in 10.0 mi NNW 9.2 mph - N/A   Overcast
9:14 PM 40.1 °F 35.3 °F 28.0 °F 62% 30.04 in 10.0 mi NNW 6.9 mph 16.1 mph N/A   Overcast
9:35 PM 39.6 °F 33.5 °F 28.4 °F 64% 30.04 in 10.0 mi NNW 9.2 mph - N/A   Overcast
9:55 PM 39.2 °F 33.6 °F 29.1 °F 67% 30.05 in 10.0 mi NNW 8.1 mph - N/A   Overcast
10:14 PM 39.2 °F 33.6 °F 29.1 °F 67% 30.05 in 10.0 mi NNW 8.1 mph - N/A   Overcast
10:35 PM 39.2 °F 34.2 °F 29.3 °F 68% 30.05 in 10.0 mi NNW 6.9 mph - N/A   Overcast
10:54 PM 38.1 °F 31.7 °F 27.9 °F 67% 30.05 in 10.0 mi NNW 9.2 mph - N/A   Mostly Cloudy
11:35 PM 36.0 °F 29.6 °F 26.6 °F 69% 30.06 in 10.0 mi NNW 8.1 mph - N/A   Scattered Clouds
11:54 PM 35.6 °F 29.9 °F 26.4 °F 69% 30.07 in 10.0 mi NNW 6.9 mph - N/A   Clear